Mildenhall RAF, United Kingdom

6:07 PM BST on August 20, 2017 (GMT +0100)
Mildenhall Air Base

Weather History for EGUN - January, 2013

Change the Weather History Date:

Tuesday, January 29, 2013

  Actual Average Record
Temperature  
Mean Temperature 52 °F -  
Max Temperature 57 °F - - ()
Min Temperature 48 °F - - ()
Degree Days  
Heating Degree Days 12    
Growing Degree Days 2 (Base 50)    
Moisture  
Dew Point 50 °F    
Average Humidity 89    
Maximum Humidity 100    
Minimum Humidity 76    
Precipitation  
Precipitation 0.00 in - - ()
Sea Level Pressure  
Sea Level Pressure 29.54 in    
Wind  
Wind Speed 15 mph ()    
Max Wind Speed 28 mph    
Max Gust Speed 37 mph    
Visibility 6.2 miles    
Events Rain    
T = Trace of Precipitation, MM = Missing Value Source: Averaged Metar Reports

Daily Weather History Graph

Daily Weather History Graph

Search for Another Location

Airport or City:

Trip Planner

Search our weather history database for the weather conditions in past years. The results will help you decide how hot, cold, wet, or windy it might be!

Date:

Astronomy

Jan. 29, 2013 Rise Set
Actual Time 7:43 AM GMT 4:39 PM GMT
Civil Twilight 7:06 AM GMT 5:16 PM GMT
Nautical Twilight 6:25 AM GMT 5:58 PM GMT
Astronomical Twilight 5:45 AM GMT 6:38 PM GMT
Moon 7:48 PM GMT (1/29) 8:08 AM GMT (1/29)
Length of Visible Light 10h 10m
Length of Day
8h 55m
Waning Gibbous, 95% of the Moon is Illuminated
Jan 29
Waning Gibbous
Feb 3
Last Quarter
Feb 10
New
Feb 17
First Quarter
Feb 25
Full

Hourly Weather History & Observations

Time (GMT) Temp. Dew Point Humidity Pressure Visibility Wind Dir Wind Speed Gust Speed Precip Events Conditions
12:58 AM 50.4 °F 43.0 °F 76% 29.53 in 6.2 mi WSW 20.7 mph 31.1 mph N/A   Clear
1:58 AM 50.4 °F 43.3 °F 77% 29.53 in 6.2 mi SW 26.5 mph 34.5 mph N/A   Clear
2:58 AM 50.0 °F 43.0 °F 77% 29.56 in 6.2 mi WSW 17.3 mph 25.3 mph N/A   Scattered Clouds
3:58 AM 49.6 °F 43.5 °F 79% 29.55 in 6.2 mi WSW 16.1 mph 24.2 mph N/A   Overcast
4:58 AM 48.9 °F 43.2 °F 80% 29.56 in 6.2 mi WSW 13.8 mph - N/A   Clear
5:58 AM 48.6 °F 44.2 °F 85% 29.58 in 6.2 mi WSW 13.8 mph 21.9 mph N/A   Partly Cloudy
6:58 AM 49.1 °F 44.4 °F 84% 29.58 in 6.2 mi SW 8.1 mph - N/A   Overcast
7:58 AM 48.2 °F 44.8 °F 88% 29.61 in 6.2 mi SW 12.7 mph - N/A   Overcast
8:46 AM 48.2 °F 46.4 °F 93% 29.60 in 6.2 mi SSW 9.2 mph - N/A   Overcast
8:58 AM 48.9 °F 45.7 °F 89% 29.61 in 6.2 mi SSW 9.2 mph - N/A   Overcast
9:15 AM 48.2 °F 46.4 °F 93% 29.59 in 6.2 mi SSW 8.1 mph - N/A   Mostly Cloudy
9:32 AM 50.0 °F 46.4 °F 87% 29.60 in 6.2 mi SSW 8.1 mph - N/A   Mostly Cloudy
9:34 AM 50.0 °F 46.4 °F 87% 29.60 in 6.2 mi South 6.9 mph - N/A   Mostly Cloudy
9:36 AM 50.0 °F 46.4 °F 87% 29.60 in 6.2 mi South 5.8 mph - N/A   Mostly Cloudy
9:48 AM 50.0 °F 46.4 °F 87% 29.60 in 6.2 mi South 6.9 mph - N/A   Overcast
9:58 AM 50.2 °F 47.1 °F 89% 29.61 in 6.2 mi South 8.1 mph - N/A   Overcast
10:04 AM 50.0 °F 46.4 °F 87% 29.60 in 6.2 mi South 9.2 mph - N/A   Overcast
10:15 AM 50.0 °F 48.2 °F 94% 29.60 in 6.2 mi SSW 10.4 mph - N/A   Overcast
10:16 AM 50.0 °F 48.2 °F 94% 29.60 in 6.2 mi South 11.5 mph - N/A   Overcast
10:18 AM 50.0 °F 48.2 °F 94% 29.60 in 6.2 mi SSW 10.4 mph - N/A   Overcast
10:20 AM 50.0 °F 48.2 °F 94% 29.60 in 6.2 mi SSW 10.4 mph - N/A   Overcast
10:22 AM 51.8 °F 48.2 °F 88% 29.60 in 6.2 mi SSW 11.5 mph - N/A Rain Light Rain
10:30 AM 51.8 °F 48.2 °F 88% 29.59 in 6.2 mi SSW 12.7 mph - N/A Rain Light Rain
10:47 AM 50.0 °F 50.0 °F 100% 29.60 in 6.2 mi SSW 12.7 mph - N/A Rain Light Rain
10:58 AM 50.9 °F 49.6 °F 95% 29.61 in 6.2 mi South 12.7 mph - 0.00 in Rain Light Rain
11:10 AM 51.8 °F 50.0 °F 94% 29.60 in 6.2 mi SSW 10.4 mph - N/A   Overcast
11:13 AM 51.8 °F 50.0 °F 94% 29.60 in 6.2 mi South 9.2 mph - N/A   Overcast
11:15 AM 51.8 °F 50.0 °F 94% 29.60 in 6.2 mi SSW 11.5 mph - N/A Rain Light Rain
11:23 AM 51.8 °F 50.0 °F 94% 29.60 in 6.2 mi South 10.4 mph - N/A Rain Light Rain
11:25 AM 51.8 °F 50.0 °F 94% 29.59 in 6.2 mi SSW 11.5 mph - N/A   Overcast
11:37 AM 51.8 °F 51.8 °F 100% 29.58 in 6.2 mi SSW 11.5 mph - N/A Rain Light Rain
11:45 AM 51.8 °F 51.8 °F 100% 29.58 in 6.2 mi SSW 10.4 mph - N/A   Overcast
11:50 AM 51.8 °F 51.8 °F 100% 29.58 in 6.2 mi South 9.2 mph - N/A   Overcast
11:58 AM 52.3 °F 51.3 °F 96% 29.59 in 6.2 mi South 10.4 mph - 0.00 in   Overcast
12:58 PM 55.2 °F 52.5 °F 91% 29.57 in 6.2 mi SSW 13.8 mph - N/A   Overcast
1:09 PM 55.4 °F 51.8 °F 88% 29.56 in 6.2 mi SSW 17.3 mph - N/A   Overcast
1:17 PM 55.4 °F 51.8 °F 88% 29.56 in 6.2 mi SSW 16.1 mph - N/A   Overcast
1:41 PM 55.4 °F 51.8 °F 88% 29.55 in 6.2 mi SSW 17.3 mph - N/A   Overcast
1:46 PM 55.4 °F 53.6 °F 94% 29.55 in 6.2 mi SSW 16.1 mph - N/A   Overcast
1:58 PM 55.8 °F 52.9 °F 90% 29.56 in 6.2 mi SSW 17.3 mph - N/A   Overcast
2:58 PM 56.5 °F 53.1 °F 88% 29.54 in 6.2 mi SW 18.4 mph 25.3 mph N/A   Overcast
3:06 PM 57.2 °F 53.6 °F 88% 29.53 in 6.2 mi SW 19.6 mph 28.8 mph N/A   Overcast
3:09 PM 55.4 °F 53.6 °F 94% 29.53 in 6.2 mi SW 18.4 mph 28.8 mph N/A   Overcast
3:14 PM 55.4 °F 53.6 °F 94% 29.52 in 6.2 mi SSW 17.3 mph 25.3 mph N/A   Overcast
3:19 PM 57.2 °F 53.6 °F 88% 29.52 in 6.2 mi SW 20.7 mph 25.3 mph N/A   Overcast
3:36 PM 57.2 °F 53.6 °F 88% 29.52 in 6.2 mi SSW 19.6 mph 25.3 mph N/A   Overcast
3:51 PM 57.2 °F 53.6 °F 88% 29.52 in 6.2 mi SSW 18.4 mph - N/A   Overcast
3:58 PM 56.7 °F 52.7 °F 87% 29.52 in 6.2 mi SSW 20.7 mph - N/A   Overcast
4:58 PM 56.8 °F 52.2 °F 84% 29.52 in 6.2 mi SSW 21.9 mph 28.8 mph N/A   Overcast
5:52 PM 57.2 °F 51.8 °F 82% 29.51 in 6.2 mi SSW 20.7 mph 27.6 mph N/A   Overcast
5:58 PM 56.8 °F 52.0 °F 84% 29.52 in 6.2 mi SW 20.7 mph - N/A   Overcast
6:52 PM 57.2 °F 51.8 °F 82% 29.49 in 6.2 mi SSW 24.2 mph 32.2 mph N/A   Overcast
6:54 PM 57.2 °F 51.8 °F 82% 29.49 in 6.2 mi SSW 21.9 mph 32.2 mph N/A   Overcast
6:58 PM 56.5 °F 52.2 °F 85% 29.50 in 6.2 mi SSW 24.2 mph 32.2 mph N/A   Overcast
7:04 PM 57.2 °F 51.8 °F 82% 29.49 in 6.2 mi SSW 25.3 mph 34.5 mph N/A   Overcast
7:12 PM 57.2 °F 51.8 °F 82% 29.49 in 6.2 mi SSW 20.7 mph 34.5 mph N/A   Overcast
7:37 PM 55.4 °F 51.8 °F 88% 29.49 in 6.2 mi SW 20.7 mph 26.5 mph N/A   Overcast
7:58 PM 56.5 °F 52.2 °F 85% 29.50 in 6.2 mi SW 23.0 mph 33.4 mph N/A   Overcast
8:03 PM 57.2 °F 51.8 °F 82% 29.49 in 6.2 mi SSW 23.0 mph 31.1 mph N/A   Overcast
8:32 PM 55.4 °F 51.8 °F 88% 29.49 in 6.2 mi SW 25.3 mph 35.7 mph N/A   Overcast
8:50 PM 55.4 °F 51.8 °F 88% 29.48 in 6.2 mi SW 23.0 mph 32.2 mph N/A   Overcast
8:52 PM 55.4 °F 51.8 °F 88% 29.48 in 6.2 mi SW 24.2 mph 32.2 mph N/A   Overcast
8:57 PM 55.4 °F 51.8 °F 88% 29.48 in 6.2 mi SW 23.0 mph 35.7 mph N/A   Overcast
8:58 PM 55.4 °F 51.8 °F 88% 29.50 in 6.2 mi SW 24.2 mph 35.7 mph N/A   Overcast
9:23 PM 55.4 °F 51.8 °F 88% 29.48 in 6.2 mi SSW 27.6 mph 36.8 mph N/A   Overcast
9:24 PM 55.4 °F 51.8 °F 88% 29.48 in 6.2 mi SSW 26.5 mph 36.8 mph N/A   Overcast
9:58 PM 55.8 °F 52.0 °F 87% 29.49 in 6.2 mi SW 23.0 mph 33.4 mph N/A   Overcast
10:36 PM 55.4 °F 51.8 °F 88% 29.48 in 6.2 mi SSW 23.0 mph 26.5 mph N/A Rain Light Rain
10:40 PM 55.4 °F 51.8 °F 88% 29.48 in 6.2 mi SSW 20.7 mph 29.9 mph N/A Rain Light Rain
10:41 PM 55.4 °F 51.8 °F 88% 29.48 in 6.2 mi SSW 23.0 mph 29.9 mph N/A Rain Light Rain
10:51 PM 55.4 °F 53.6 °F 94% 29.48 in 6.2 mi SSW 21.9 mph 28.8 mph N/A Rain Light Rain
10:52 PM 55.4 °F 53.6 °F 94% 29.48 in 6.2 mi SSW 19.6 mph 28.8 mph N/A Rain Light Rain
10:53 PM 55.4 °F 53.6 °F 94% 29.48 in 6.2 mi SSW 19.6 mph 27.6 mph N/A Rain Light Rain
10:54 PM 55.4 °F 53.6 °F 94% 29.48 in 6.2 mi SSW 18.4 mph 27.6 mph N/A   Overcast
10:58 PM 54.7 °F 52.9 °F 94% 29.49 in 6.2 mi SSW 21.9 mph 27.6 mph 0.00 in   Overcast
11:03 PM 55.4 °F 53.6 °F 94% 29.48 in 6.2 mi SSW 18.4 mph 29.9 mph N/A Rain Light Rain
11:17 PM 55.4 °F 51.8 °F 88% 29.48 in 6.2 mi SSW 16.1 mph - N/A   Overcast
11:28 PM 55.4 °F 51.8 °F 88% 29.48 in 6.2 mi SSW 18.4 mph 25.3 mph N/A   Overcast
11:32 PM 55.4 °F 51.8 °F 88% 29.48 in 6.2 mi SSW 17.3 mph - N/A   Overcast
11:37 PM 55.4 °F 51.8 °F 88% 29.48 in 6.2 mi SSW 18.4 mph 25.3 mph N/A   Overcast
11:58 PM 54.9 °F 52.2 °F 91% 29.44 in 6.2 mi SSW 19.6 mph 31.1 mph 0.00 in   Overcast